This demonstration page uses our WeatherBlox Daily Observations layout. Learn more.

Left ArrowRight Arrow

44.8408, -93.29828

Hourly Observations for November 2, 2016

Temp ( °F °C ) Dew Point ( °F °C ) Humidity (%) Winds ( mph kmh ) Pressure ( in mb ) Visibility ( mi km ) Precip ( " mm )
12:53 am 00:53 Cloudy 46 7.8 41 5 83 83 Calm 30.12 1020 10 16 0.00 0.00
1:53 am 01:53 Cloudy 44 6.7 41 5 89 89 Calm 30.13 1020 10 16 0.00 0.00
2:53 am 02:53 Cloudy 42 5.6 39 3.9 89 89 Calm 30.12 1020 10 16 0.00 0.00
3:53 am 03:53 Cloudy 42 5.6 39 3.9 89 89 Calm 30.12 1020 7 11 0.00 0.00
4:53 am 04:53 Cloudy 41 5 39 3.9 93 93 Calm 30.11 1020 10 16 0.00 0.00
5:53 am 05:53 Mostly Cloudy 42 5.6 39 3.9 89 89 Calm 30.14 1021 10 16 0.00 0.00
6:53 am 06:53 Mostly Cloudy 41 5 38 3.3 89 89 Calm 30.16 1021 10 16 0.00 0.00
7:53 am 07:53 Cloudy 43 6.1 40 4.4 89 89 NNW 5 7 30.18 1022 10 16 0.00 0.00
8:53 am 08:53 Mostly Cloudy 45 7.2 41 5 86 86 Calm 30.19 1022 10 16 0.00 0.00
9:53 am 09:53 Mostly Cloudy 50 10 43 6.1 77 77 NNW 3 6 30.19 1023 10 16 0.00 0.00
10:53 am 10:53 Mostly Cloudy 53 11.7 44 6.7 72 72 Calm 30.19 1023 10 16 0.00 0.00
11:53 am 11:53 Mostly Cloudy 56 13.3 45 7.2 67 67 N 5 7 30.19 1023 10 16 0.00 0.00
12:53 pm 12:53 Mostly Cloudy 59 15 43 6.1 56 56 Calm 30.19 1022 10 16 0.00 0.00
1:53 pm 13:53 Mostly Cloudy 61 16.1 44 6.7 54 54 NW 3 6 30.19 1022 10 16 0.00 0.00
2:53 pm 14:53 Cloudy 61 16.1 42 5.6 50 50 Calm 30.18 1022 10 16 0.00 0.00
3:53 pm 15:53 Cloudy 61 16.1 43 6.1 52 52 NW 6 9 30.19 1022 10 16 0.00 0.00
4:53 pm 16:53 Cloudy 60 15.6 42 5.6 52 52 Calm 30.19 1022 10 16 0.00 0.00
5:53 pm 17:53 Mostly Cloudy 58 14.4 41 5 53 53 Calm 30.17 1022 10 16 0.00 0.00
6:53 pm 18:53 Partly Cloudy 57 13.9 41 5 55 55 S 6 9 30.17 1022 10 16 0.00 0.00
7:53 pm 19:53 Mostly Clear 52 11.1 41 5 66 66 Calm 30.18 1022 10 16 0.00 0.00
8:53 pm 20:53 Mostly Clear 53 11.7 42 5.6 66 66 Calm 30.18 1022 10 16 0.00 0.00
9:53 pm 21:53 Cloudy 51 10.6 43 6.1 74 74 W 3 6 30.19 1022 10 16 0.00 0.00
10:53 pm 22:53 Mostly Cloudy 51 10.6 43 6.1 74 74 Calm 30.20 1023 10 16 0.00 0.00
11:53 pm 23:53 Mostly Clear 50 10 42 5.6 74 74 S 5 7 30.19 1022 10 16 0.00 0.00

Powered by AerisWeather